Regional Weather Roundup
Issued by NWS

Home | Current Version | Previous Version | Graphics & Text | Print | Product List | Glossary On
Versions: 1 2 3 4 5 6 7 8 9 10 11 12 13 14 15 16 17 18 19 20 21 22 23 24 25 26 27 28 29 30 31 32 33 34 35 36 37 38 39 40 41 42 43 44 45 46 47 48 49 50
000
ASUS43 KBIS 241231
RWRND
NORTH DAKOTA REGIONAL WEATHER ROUNDUP
NATIONAL WEATHER SERVICE EASTERN NORTH DAKOTA/GRAND FORKS ND
600 AM CST SAT FEB 24 2018

  NOTE: "FAIR" INDICATES FEW OR NO CLOUDS BELOW 12,000 FEET WITH NO
  SIGNIFICANT WEATHER AND/OR OBSTRUCTIONS TO VISIBILITY.

NDZ001>003-009>011-017-241300-
...NORTHWEST NORTH DAKOTA...

CITY           SKY/WX    TMP DP  RH WIND       PRES   REMARKS
WILLISTON      FAIR      -6 -11  79 SW3       29.82F
6HR MIN TEMP:  -9; 6HR MAX TEMP:   2;

MINOT          FAIR      10  -1  61 S12       29.83F WCI  -5
MINOT AFB      FAIR       8  -1  66 S9          N/A  WCI  -5
6HR MIN TEMP:   7; 6HR MAX TEMP:  12;

$$

NDZ018>021-031>035-040>046-241300-
...SOUTHWEST NORTH DAKOTA...

CITY           SKY/WX    TMP DP  RH WIND       PRES   REMARKS
BISMARCK       FAIR      -1  -5  82 SE3       29.93F
DICKINSON      CLOUDY     7   1  76 SW5       29.78F WCI  -2
GARRISON         N/A     -1  -6  79 CALM      29.86F
HETTINGER      CLOUDY     8   2  76 S5        29.80F WCI   0
$$

NDZ004>008-012>016-024-026-027-054-241300-
...NORTHEAST NORTH DAKOTA...

CITY           SKY/WX    TMP DP  RH WIND       PRES   REMARKS
GRAND FORKS    FAIR      -2  -6  83 S10       30.06F WCI -19
GRAND FORKS AF FAIR       0  -5  81 S9        30.04F WCI -16
DEVILS LAKE    FAIR       4  -1  80 SE7       29.94F WCI  -8
$$

NDZ022-023-025-028>030-036>039-047>053-241300-
...SOUTHEAST NORTH DAKOTA...

CITY           SKY/WX    TMP DP  RH WIND       PRES   REMARKS
JAMESTOWN      FAIR      -4  -8  83 SE3       29.98F
FARGO          FAIR      -5  -9  83 S12       30.11F WCI -23
WAHPETON       CLOUDY    -8 -13  77 S5        30.13S VSB 1/2 WCI -19
$$




USA.gov is the U.S. government's official web portal to all federal, state and local government web resources and services.